User: anonymous   Login
Location: Unspecified
(0.0000°N, 0.0000°E)
Time: 21:04:32
(UTC+00:00)
Language:

CALISTUS D - Orbit

View from above orbital plane
View from above orbital plane
View from above satellite
View from above satellite

Ground track
Ground track

The orbit is defined by the following mean orbital elements,

1 65301U          26145.20947610 +.00000000 +00000-0 +74660-3 0 00001
2 65301  97.9642 228.8119 0016841 151.1962 209.0183 14.78838041    07
Epoch (UTC): 25 May 2026 05:01:38
Eccentricity: 0.0016841
inclination: 97.9642°
perigee height: 621 km
apogee height: 645 km
right ascension of ascending node: 228.8119°
argument of perigee: 151.1962°
revolutions per day: 14.78838041
mean anomaly at epoch: 209.0183°

The dashed part of the orbit path shows where the satellite is in the earth's shadow,  

DLR